Fargo, ND

9:48 AM CDT on September 19, 2017 (GMT -0500)
Hector International

Weather History for KFAR - February, 2014

Change the Weather History Date:

Saturday, February 22, 2014

  Actual Average Record
Temperature  
Mean Temperature 5 °F 17 °F  
Max Temperature 13 °F 26 °F 49 °F (1958)
Min Temperature -3 °F 9 °F -30 °F (1891)
Degree Days  
Heating Degree Days 60 48  
Month to date heating degree days 1288 1134  
Since 1 July heating degree days 6880 6402  
Cooling Degree Days 0 0  
Month to date cooling degree days 0 0  
Year to date cooling degree days 0 0  
Moisture  
Dew Point -4 °F    
Average Humidity 69    
Maximum Humidity 76    
Minimum Humidity 61    
Precipitation  
Precipitation 0.00 in 0.03 in 0.41 in (1979)
Month to date precipitation 0.11 0.43  
Year to date precipitation 0.88 1.13  
Snow  
Snow 0.00 in 0.30 in 6.40 in (1979)
Month to date snowfall 1.4 5.2  
Since 1 July snowfall 27.5 36.2  
Snow Depth 11.00 in    
Sea Level Pressure  
Sea Level Pressure 30.09 in    
Wind  
Wind Speed 14 mph (WNW)    
Max Wind Speed 22 mph    
Max Gust Speed 25 mph    
Visibility 10 miles    
Events      
T = Trace of Precipitation, MM = Missing Value Source: NWS Daily Summary

Daily Weather History Graph

Daily Weather History Graph

Search for Another Location

Airport or City:

Trip Planner

Search our weather history database for the weather conditions in past years. The results will help you decide how hot, cold, wet, or windy it might be!

Date:

Astronomy

Feb. 22, 2014 Rise Set
Actual Time 7:19 AM CST 6:02 PM CST
Civil Twilight 6:48 AM CST 6:33 PM CST
Nautical Twilight 6:13 AM CST 7:08 PM CST
Astronomical Twilight 5:38 AM CST 7:43 PM CST
Moon 1:25 AM CST (2/22) 11:04 AM CST (2/22)
Length of Visible Light 11h 44m
Length of Day
10h 42m
Waning Gibbous, 50% of the Moon is Illuminated
Feb 22
Waning Gibbous
Mar 1
New
Mar 8
First Quarter
Mar 16
Full
Mar 23
Last Quarter

Hourly Weather History & Observations

Time (CST) Temp. Windchill Dew Point Humidity Pressure Visibility Wind Dir Wind Speed Gust Speed Precip Events Conditions
12:53 AM 1.0 °F -15.8 °F -6.0 °F 72% 29.92 in 10.0 mi West 11.5 mph - N/A   Clear
1:53 AM 1.9 °F -16.9 °F -6.0 °F 69% 29.93 in 10.0 mi WNW 15.0 mph - N/A   Clear
2:53 AM 1.0 °F -16.6 °F -6.0 °F 72% 29.95 in 10.0 mi WNW 12.7 mph - N/A   Clear
3:53 AM 1.0 °F -16.6 °F -7.1 °F 69% 29.96 in 10.0 mi WNW 12.7 mph - N/A   Clear
4:53 AM -0.9 °F -19.1 °F -8.0 °F 72% 29.99 in 10.0 mi West 12.7 mph - N/A   Clear
5:53 AM -0.9 °F -19.1 °F -8.0 °F 72% 30.01 in 10.0 mi West 12.7 mph - N/A   Clear
6:53 AM -0.9 °F -19.9 °F -9.0 °F 69% 30.02 in 10.0 mi West 13.8 mph - N/A   Clear
7:53 AM -2.0 °F -20.5 °F -9.0 °F 72% 30.04 in 10.0 mi West 12.7 mph - N/A   Clear
8:53 AM -0.0 °F -19.4 °F -8.0 °F 69% 30.06 in 10.0 mi West 15.0 mph - N/A   Clear
9:53 AM 3.0 °F -16.1 °F -6.0 °F 66% 30.06 in 10.0 mi WNW 16.1 mph - N/A   Clear
10:53 AM 6.1 °F -11.6 °F -4.0 °F 63% 30.08 in 10.0 mi WNW 15.0 mph - N/A   Clear
11:53 AM 7.0 °F -11.6 °F -2.9 °F 64% 30.09 in 10.0 mi WNW 17.3 mph - N/A   Clear
12:53 PM 9.0 °F -9.5 °F -0.9 °F 64% 30.09 in 10.0 mi WNW 18.4 mph - N/A   Clear
1:53 PM 10.9 °F -6.5 °F 1.0 °F 64% 30.10 in 10.0 mi WNW 17.3 mph - N/A   Clear
2:53 PM 12.9 °F -4.9 °F 3.0 °F 65% 30.09 in 10.0 mi WNW 19.6 mph - N/A   Clear
3:53 PM 12.9 °F -3.9 °F 3.0 °F 65% 30.11 in 10.0 mi NW 17.3 mph - N/A   Clear
4:53 PM 12.0 °F -5.1 °F 1.9 °F 64% 30.13 in 10.0 mi WNW 17.3 mph - N/A   Clear
5:53 PM 10.0 °F -5.9 °F -0.0 °F 64% 30.14 in 10.0 mi WNW 13.8 mph - N/A   Clear
6:53 PM 8.1 °F -7.0 °F -0.9 °F 67% 30.18 in 10.0 mi WNW 11.5 mph - N/A   Clear
7:53 PM 7.0 °F -9.8 °F -2.0 °F 67% 30.19 in 10.0 mi WNW 13.8 mph - N/A   Clear
8:53 PM 3.9 °F -11.3 °F -4.0 °F 70% 30.21 in 10.0 mi West 10.4 mph - N/A   Clear
9:53 PM 5.0 °F -12.3 °F -2.9 °F 70% 30.22 in 10.0 mi WNW 13.8 mph - N/A   Clear
10:53 PM 1.9 °F -12.9 °F -5.1 °F 72% 30.23 in 10.0 mi West 9.2 mph - N/A   Clear
11:53 PM 1.9 °F -13.8 °F -5.1 °F 72% 30.23 in 10.0 mi West 10.4 mph - N/A   Clear